Flag for Germany

Past Weather in 51°28'24.8"N, 7°33'13.6"E, Germany — Yesterday and Last 2 Weeks

Currently: 72 °F. Scattered clouds. (Weather station: Dortmund / Wickede, Germany). See more current weather

Past Weather in 51°28'24.8"N, 7°33'13.6"E — Graph

°F

51°28'24.8"N, 7°33'13.6"E Temperature Yesterday

Maximum temperature yesterday: 81 °F (at 5:50 pm)
Minimum temperature yesterday: 55 °F (at 5:20 am)
Average temperature yesterday: 69 °F

High & Low Weather Summary for the Past Weeks

 TemperatureHumidityPressure
High88 °F (Jul 9, 5:20 pm)100% (Jul 2, 11:50 am)30.07 "Hg (Jul 2, 11:50 am)
Low50 °F (Jul 7, 5:50 am)32% (Jul 15, 5:50 pm)29.53 "Hg (Jul 6, 10:50 am)
Average63 °F73%29.88 "Hg
* Reported Jul 1 10:20 am — Jul 16 10:20 am, 51°28'24.8"N, 7°33'13.6"E. Weather by CustomWeather, © 2024

Note: Actual official high and low records may vary slightly from our data, if they occured in-between our weather recording intervals... More about our weather records

51°28'24.8"N, 7°33'13.6"E Weather History for the Previous 24 Hours

Scroll right to see more
 ConditionsComfort  
Time TempWeatherWind HumidityBarometerVisibility
10:20 am
Tue, Jul 16
68 °FPassing clouds.15 mph64%29.86 "HgN/A
9:50 am68 °FSunny.20 mph64%29.86 "Hg10 mi
9:20 am68 °FPassing clouds.17 mph64%29.86 "HgN/A
8:50 am68 °FPassing clouds.15 mph69%29.83 "HgN/A
8:20 am66 °FPassing clouds.16 mph78%29.83 "HgN/A
7:50 am66 °FPartly sunny.10 mph83%29.83 "HgN/A
7:20 am66 °FBroken clouds.12 mph83%29.80 "HgN/A
6:50 am66 °FBroken clouds.7 mph88%29.80 "HgN/A
6:20 am66 °FPartly sunny.8 mph88%29.80 "HgN/A
5:50 am66 °FSunny.8 mph88%29.80 "Hg10 mi
5:20 am64 °FClear.9 mph94%29.77 "Hg10 mi
4:50 am66 °FPassing clouds.9 mph88%29.77 "HgN/A
4:20 am66 °FPartly cloudy.9 mph88%29.77 "HgN/A
3:50 am66 °FPassing clouds.6 mph88%29.74 "HgN/A
3:20 am66 °FPassing clouds.8 mph88%29.77 "HgN/A
2:50 am66 °FPassing clouds.6 mph88%29.77 "HgN/A
2:20 am66 °FPassing clouds.6 mph88%29.77 "HgN/A
1:50 am68 °FOvercast.2 mph83%29.77 "HgN/A
1:20 am68 °FMostly cloudy.8 mph83%29.80 "HgN/A
12:50 am68 °FMostly cloudy.7 mph83%29.77 "HgN/A
12:20 am68 °FPassing clouds.7 mph83%29.77 "HgN/A
11:50 pm
Mon, Jul 15
70 °FPassing clouds.8 mph73%29.77 "HgN/A
11:20 pm70 °FPassing clouds.6 mph69%29.74 "HgN/A
10:50 pm72 °FClear.7 mph69%29.77 "Hg10 mi
10:20 pm72 °FClear.3 mph69%29.77 "Hg10 mi
9:50 pm73 °FClear.6 mph57%29.77 "Hg10 mi
9:20 pm73 °FSunny.5 mph57%29.77 "Hg10 mi
8:50 pm75 °FSunny.6 mph50%29.80 "Hg10 mi
8:20 pm77 °FSunny.6 mph42%29.80 "Hg10 mi
7:50 pm79 °FSunny.5 mph42%29.80 "Hg10 mi
7:20 pm79 °FPassing clouds.7 mph37%29.80 "HgN/A
6:50 pm79 °FPassing clouds.7 mph39%29.80 "HgN/A
6:20 pm81 °FPassing clouds.6 mph37%29.80 "HgN/A
5:50 pm81 °FPassing clouds.6 mph32%29.80 "HgN/A
5:20 pm79 °FPassing clouds.5 mph37%29.83 "HgN/A
4:50 pm79 °FPassing clouds.7 mph37%29.83 "HgN/A
4:20 pm79 °FPassing clouds.7 mph37%29.83 "HgN/A
3:50 pm79 °FSunny.6 mph39%29.83 "Hg10 mi
3:20 pm79 °FPassing clouds.7 mph42%29.86 "HgN/A
2:50 pm77 °FSunny.5 mph42%29.86 "Hg10 mi
2:20 pm77 °FPassing clouds.3 mph42%29.86 "HgN/A
1:50 pm75 °FSunny.3 mph44%29.86 "Hg10 mi
1:20 pm75 °FPassing clouds.6 mph41%29.89 "HgN/A
12:50 pm75 °FSunny.3 mph44%29.89 "Hg10 mi
12:20 pm75 °FPassing clouds.7 mph50%29.89 "HgN/A
Weather by CustomWeather, © 2024

See weather overview